Powrót do katalogu

COSMOS 839 DEB

AktywnyLEO
NORAD 17838·DEBRIS·🇷🇺 Russia

Wystrzelony Jul 8, 1976 z Plesetsk Cosmodrome

Loading…

Następne Przeloty (najbliższe 24 godziny)

TLE

Starzejące sięSource: Space-Track

Epoka: Sep 12, 2026, 00:44 UTC

1 17838U 76067BK  26255.03063116  .00000253  00000-0  10363-2 0  9998
2 17838  65.9808 261.7817 0631605 164.7496 231.5625 12.46724941576377

Śledź COSMOS 839 DEB w czasie rzeczywistym z AllMySat

Download on the App Store